Вернуться в каталог

FENGYUN 1C DEB

АктивенPO
NORAD 37415·DEBRIS·🇨🇳 China

Запущен May 10, 1999 с Taiyuan Satellite Launch Center

Loading…

Ближайшие Пролёты (ближайшие 24 часа)

TLE

УстаревающийSource: Space-Track

Эпоха: Sep 7, 2026, 23:07 UTC

1 37415U 99025EGH 26250.96370607  .00000218  00000-0  30324-3 0  9994
2 37415  98.9841 338.7432 0284086 214.9140 143.3075 13.52240451659606

Отслеживайте FENGYUN 1C DEB в реальном времени с AllMySat

Download on the App Store